| time (UTC) | temp F | wind direction | speed MPH | gust MPH | rain 1hr in | rain 24hr in | rain mn in | humidity % | barometer mb |
| 20260504214513 | 82 | 220 | 8.0 | 12.0 | 0.00 | 0.00 | 0.00 | 59 | 1010.6 |
| 20260504214008 | 82 | 214 | 3.0 | 7.0 | 0.00 | 0.00 | 0.00 | 60 | 1011.3 |
| 20260504214005 | 82 | 80 | 7.0 | 12.0 | 0.00 | 0.00 | 0.00 | 60 | 1010.8 |
| 20260504213509 | 81 | 205 | 6.0 | 12.0 | 0.00 | 0.00 | 0.00 | 60 | 1010.8 |
| 20260504213507 | 81 | 171 | 2.0 | 6.0 | 0.00 | 0.00 | 0.00 | 60 | 1011.3 |
| 20260504213031 | 82 | 156 | 2.0 | 9.0 | 0.00 | 0.00 | 0.00 | 57 | 1011.3 |
| 20260504213019 | 82 | 163 | 5.0 | 18.0 | 0.00 | 0.00 | 0.00 | 57 | 1010.9 |
| 20260504212509 | 83 | 193 | 7.0 | 18.0 | 0.00 | 0.00 | 0.00 | 57 | 1011.0 |
| 20260504212503 | 83 | 215 | 1.0 | 9.0 | 0.00 | 0.00 | 0.00 | 57 | 1011.4 |
| 20260504212010 | 83 | 207 | 8.0 | 12.0 | 0.00 | 0.00 | 0.00 | 57 | 1011.0 |
| 20260504212004 | 83 | 243 | 3.0 | 9.0 | 0.00 | 0.00 | 0.00 | 57 | 1011.4 |
| 20260504211525 | 83 | 174 | 5.0 | 16.0 | 0.00 | 0.00 | 0.00 | 57 | 1011.0 |
| 20260504211511 | 83 | 180 | 1.0 | 4.0 | 0.00 | 0.00 | 0.00 | 57 | 1011.5 |
| 20260504211003 | 82 | 186 | 2.0 | 4.0 | 0.00 | 0.00 | 0.00 | 60 | 1011.7 |
| 20260504210507 | 80 | 189 | 6.0 | 13.0 | 0.00 | 0.00 | 0.00 | 60 | 1011.3 |
| 20260504210503 | 80 | 201 | 1.0 | 6.0 | 0.00 | 0.00 | 0.00 | 60 | 1011.9 |
| 20260504210024 | 80 | 208 | 6.0 | 12.0 | 0.00 | 0.00 | 0.00 | 60 | 1011.4 |
| 20260504210008 | 80 | 149 | 2.0 | 6.0 | 0.00 | 0.00 | 0.00 | 60 | 1012.0 |
| 20260504205507 | 81 | 151 | 8.0 | 16.0 | 0.00 | 0.00 | 0.00 | 60 | 1011.3 |
| 20260504205503 | 81 | 227 | 1.0 | 9.0 | 0.00 | 0.00 | 0.00 | 60 | 1012.0 |
| 20260504205006 | 81 | 160 | 8.0 | 16.0 | 0.00 | 0.00 | 0.00 | 58 | 1011.4 |
| 20260504205002 | 81 | 193 | 2.0 | 12.0 | 0.00 | 0.00 | 0.00 | 58 | 1012.0 |
| 20260504204515 | 81 | 186 | 9.0 | 15.0 | 0.00 | 0.00 | 0.00 | 58 | 1011.5 |
| 20260504204505 | 81 | 245 | 3.0 | 12.0 | 0.00 | 0.00 | 0.00 | 58 | 1012.3 |
| 20260504204007 | 81 | 150 | 3.0 | 15.0 | 0.00 | 0.00 | 0.00 | 59 | 1011.8 |
| 20260504204002 | 81 | 180 | 1.0 | 5.0 | 0.00 | 0.00 | 0.00 | 59 | 1012.5 |
| 20260504203510 | 82 | 184 | 1.0 | 5.0 | 0.00 | 0.00 | 0.00 | 57 | 1012.5 |
| 20260504203504 | 82 | 196 | 8.0 | 14.0 | 0.00 | 0.00 | 0.00 | 57 | 1011.7 |
| 20260504203019 | 81 | 166 | 7.0 | 13.0 | 0.00 | 0.00 | 0.00 | 60 | 1011.8 |
| 20260504202505 | 82 | 117 | 3.0 | 13.0 | 0.00 | 0.00 | 0.00 | 58 | 1012.0 |
| 20260504202008 | 82 | 196 | 8.0 | 12.0 | 0.00 | 0.00 | 0.00 | 56 | 1011.9 |
| 20260504202004 | 82 | 254 | 3.0 | 8.0 | 0.00 | 0.00 | 0.00 | 56 | 1012.8 |
| 20260504201516 | 82 | 190 | 6.0 | 16.0 | 0.00 | 0.00 | 0.00 | 57 | 1012.0 |
| 20260504201507 | 82 | 49 | 1.0 | 7.0 | 0.00 | 0.00 | 0.00 | 57 | 1012.8 |
| 20260504201008 | 82 | 170 | 6.0 | 16.0 | 0.00 | 0.00 | 0.00 | 57 | 1012.2 |
| 20260504201003 | 82 | 203 | 2.0 | 8.0 | 0.00 | 0.00 | 0.00 | 57 | 1012.9 |
| 20260504200511 | 81 | 178 | 8.0 | 16.0 | 0.00 | 0.00 | 0.00 | 61 | 1012.1 |
| 20260504200502 | 81 | 221 | 3.0 | 8.0 | 0.00 | 0.00 | 0.00 | 61 | 1012.8 |
| 20260504200016 | 80 | 119 | 5.0 | 16.0 | 0.00 | 0.00 | 0.00 | 60 | 1012.3 |
| 20260504200010 | 80 | 163 | 2.0 | 7.0 | 0.00 | 0.00 | 0.00 | 60 | 1013.0 |
| 20260504195507 | 81 | 219 | 7.0 | 14.0 | 0.00 | 0.00 | 0.00 | 61 | 1012.4 |
| 20260504195504 | 81 | 263 | 1.0 | 5.0 | 0.00 | 0.00 | 0.00 | 61 | 1013.1 |
| 20260504195009 | 80 | 209 | 7.0 | 14.0 | 0.00 | 0.00 | 0.00 | 60 | 1012.3 |
| 20260504195003 | 80 | 181 | 1.0 | 5.0 | 0.00 | 0.00 | 0.00 | 60 | 1013.1 |
| 20260504194531 | 82 | 159 | 5.0 | 15.0 | 0.00 | 0.00 | 0.00 | 58 | 1012.5 |
| 20260504194511 | 82 | 208 | 2.0 | 5.0 | 0.00 | 0.00 | 0.00 | 58 | 1013.2 |
| 20260504194006 | 82 | 279 | 1.0 | 5.0 | 0.00 | 0.00 | 0.00 | 58 | 1013.2 |
| 20260504193506 | 82 | 196 | 6.0 | 12.0 | 0.00 | 0.00 | 0.00 | 58 | 1012.5 |
| 20260504193503 | 82 | 289 | 1.0 | 10.0 | 0.00 | 0.00 | 0.00 | 58 | 1013.4 |
| 20260504193017 | 80 | 170 | 5.0 | 16.0 | 0.00 | 0.00 | 0.00 | 59 | 1012.7 |
| 20260504193009 | 80 | 294 | 2.0 | 10.0 | 0.00 | 0.00 | 0.00 | 59 | 1013.5 |
| 20260504192506 | 81 | 146 | 9.0 | 15.0 | 0.00 | 0.00 | 0.00 | 57 | 1012.8 |
| 20260504192010 | 81 | 212 | 7.0 | 13.0 | 0.00 | 0.00 | 0.00 | 61 | 1012.9 |
| 20260504191523 | 80 | 211 | 5.0 | 12.0 | 0.00 | 0.00 | 0.00 | 63 | 1013.0 |
| 20260504191504 | 80 | 171 | 2.0 | 9.0 | 0.00 | 0.00 | 0.00 | 63 | 1013.7 |
| 20260504191008 | 80 | 155 | 1.0 | 8.0 | 0.00 | 0.00 | 0.00 | 60 | 1013.7 |
| 20260504190511 | 81 | 186 | 6.0 | 14.0 | 0.00 | 0.00 | 0.00 | 58 | 1013.0 |
| 20260504190504 | 81 | 297 | 2.0 | 8.0 | 0.00 | 0.00 | 0.00 | 58 | 1013.7 |
| 20260504190025 | 80 | 196 | 7.0 | 15.0 | 0.00 | 0.00 | 0.00 | 64 | 1013.0 |
| 20260504190007 | 80 | 186 | 3.0 | 7.0 | 0.00 | 0.00 | 0.00 | 64 | 1013.7 |
| 20260504185510 | 79 | 204 | 8.0 | 14.0 | 0.00 | 0.00 | 0.00 | 60 | 1013.1 |
| 20260504185506 | 79 | 248 | 2.0 | 8.0 | 0.00 | 0.00 | 0.00 | 60 | 1013.8 |
| 20260504185012 | 81 | 152 | 6.0 | 14.0 | 0.00 | 0.00 | 0.00 | 61 | 1013.1 |
| 20260504185007 | 81 | 172 | 1.0 | 10.0 | 0.00 | 0.00 | 0.00 | 61 | 1013.8 |
| 20260504184525 | 80 | 203 | 8.0 | 17.0 | 0.00 | 0.00 | 0.00 | 60 | 1013.4 |
| 20260504184512 | 80 | 232 | 2.0 | 10.0 | 0.00 | 0.00 | 0.00 | 60 | 1014.0 |
| 20260504184011 | 80 | 214 | 6.0 | 17.0 | 0.00 | 0.00 | 0.00 | 60 | 1013.5 |
| 20260504184003 | 80 | 208 | 2.0 | 9.0 | 0.00 | 0.00 | 0.00 | 60 | 1014.0 |
| 20260504183513 | 80 | 231 | 8.0 | 12.0 | 0.00 | 0.00 | 0.00 | 63 | 1013.6 |
| 20260504183508 | 80 | 219 | 2.0 | 7.0 | 0.00 | 0.00 | 0.00 | 63 | 1014.2 |
| 20260504183021 | 80 | 225 | 1.0 | 6.0 | 0.00 | 0.00 | 0.00 | 59 | 1014.3 |
| 20260504182512 | 80 | 186 | 6.0 | 14.0 | 0.00 | 0.00 | 0.00 | 61 | 1013.6 |
| 20260504182510 | 80 | 205 | 3.0 | 8.0 | 0.00 | 0.00 | 0.00 | 61 | 1014.3 |
| 20260504182007 | 80 | 190 | 8.0 | 13.0 | 0.00 | 0.00 | 0.00 | 59 | 1013.6 |
| 20260504182002 | 80 | 242 | 3.0 | 8.0 | 0.00 | 0.00 | 0.00 | 59 | 1014.3 |
| 20260504181517 | 79 | 190 | 5.0 | 14.0 | 0.00 | 0.00 | 0.00 | 65 | 1013.7 |
| 20260504181008 | 77 | 157 | 2.0 | 8.0 | 0.00 | 0.00 | 0.00 | 62 | 1014.5 |
| 20260504180513 | 78 | 191 | 8.0 | 14.0 | 0.00 | 0.00 | 0.00 | 62 | 1013.8 |
| 20260504180504 | 78 | 231 | 1.0 | 10.0 | 0.00 | 0.00 | 0.00 | 62 | 1014.5 |
| 20260504180030 | 78 | 223 | 9.0 | 14.0 | 0.00 | 0.00 | 0.00 | 64 | 1013.9 |
| 20260504180013 | 78 | 212 | 3.0 | 10.0 | 0.00 | 0.00 | 0.00 | 64 | 1014.6 |
| 20260504175509 | 78 | 144 | 4.0 | 16.0 | 0.00 | 0.00 | 0.00 | 60 | 1014.0 |
| 20260504175504 | 78 | 142 | 1.0 | 8.0 | 0.00 | 0.00 | 0.00 | 60 | 1014.7 |
| 20260504175010 | 79 | 180 | 8.0 | 16.0 | 0.00 | 0.00 | 0.00 | 62 | 1014.2 |
| 20260504175006 | 79 | 165 | 2.0 | 8.0 | 0.00 | 0.00 | 0.00 | 62 | 1015.1 |
| 20260504174528 | 79 | 198 | 6.0 | 11.0 | 0.00 | 0.00 | 0.00 | 64 | 1014.2 |
| 20260504174508 | 79 | 173 | 1.0 | 7.0 | 0.00 | 0.00 | 0.00 | 64 | 1015.2 |
| 20260504174010 | 77 | 199 | 7.0 | 12.0 | 0.00 | 0.00 | 0.00 | 65 | 1014.3 |
| 20260504174004 | 77 | 236 | 3.0 | 7.0 | 0.00 | 0.00 | 0.00 | 65 | 1015.3 |
| 20260504173510 | 77 | 167 | 1.0 | 5.0 | 0.00 | 0.00 | 0.00 | 64 | 1015.4 |
| 20260504173508 | 77 | 184 | 6.0 | 12.0 | 0.00 | 0.00 | 0.00 | 64 | 1014.4 |
| 20260504173027 | 79 | 217 | 6.0 | 18.0 | 0.00 | 0.00 | 0.00 | 62 | 1014.5 |
| 20260504173011 | 79 | 200 | 1.0 | 8.0 | 0.00 | 0.00 | 0.00 | 62 | 1015.5 |
| 20260504172511 | 78 | 178 | 6.0 | 18.0 | 0.00 | 0.00 | 0.00 | 61 | 1014.5 |
| 20260504172503 | 78 | 111 | 2.0 | 8.0 | 0.00 | 0.00 | 0.00 | 61 | 1015.5 |
| 20260504172006 | 79 | 200 | 9.0 | 15.0 | 0.00 | 0.00 | 0.00 | 64 | 1014.6 |
| 20260504172004 | 79 | 153 | 2.0 | 6.0 | 0.00 | 0.00 | 0.00 | 64 | 1015.5 |
| 20260504171539 | 77 | 143 | 8.0 | 16.0 | 0.00 | 0.00 | 0.00 | 64 | 1014.4 |
| 20260504171522 | 77 | 176 | 2.0 | 9.0 | 0.00 | 0.00 | 0.00 | 64 | 1015.4 |
| 20260504171007 | 77 | 192 | 9.0 | 16.0 | 0.00 | 0.00 | 0.00 | 63 | 1014.4 |
| 20260504170511 | 77 | 207 | 9.0 | 16.0 | 0.00 | 0.00 | 0.00 | 63 | 1014.7 |
| 20260504170504 | 77 | 233 | 3.0 | 9.0 | 0.00 | 0.00 | 0.00 | 63 | 1015.6 |
| 20260504151013 | 73 | 202 | 6.0 | 15.0 | 0.00 | 0.00 | 0.00 | 67 | 1015.5 |
| 20260504151008 | 73 | 232 | 1.0 | 6.0 | 0.00 | 0.00 | 0.00 | 67 | 1016.0 |
| 20260504150513 | 73 | 179 | 5.0 | 15.0 | 0.00 | 0.00 | 0.00 | 67 | 1015.7 |
| 20260504150507 | 73 | 123 | 2.0 | 6.0 | 0.00 | 0.00 | 0.00 | 67 | 1016.3 |
| 20260504141006 | 68 | 139 | 5.0 | 13.0 | 0.00 | 0.00 | 0.00 | 73 | 1015.8 |
| 20260504140504 | 67 | 207 | 5.0 | 12.0 | 0.00 | 0.00 | 0.00 | 73 | 1015.8 |
| 20260504130504 | 62 | 168 | 3.0 | 7.0 | 0.00 | 0.00 | 0.00 | 79 | 1015.8 |
| 20260504110504 | 56 | 186 | 0.0 | 0.0 | 0.00 | 0.00 | 0.00 | 86 | 1015.8 |
| 20260504100504 | 59 | 202 | 0.0 | 2.0 | 0.00 | 0.00 | 0.00 | 82 | 1016.2 |
| 20260504082008 | 60 | 156 | 2.0 | 4.0 | 0.00 | 0.00 | 0.00 | 79 | 1016.0 |
| 20260504081522 | 60 | 158 | 2.0 | 6.0 | 0.00 | 0.00 | 0.00 | 78 | 1016.1 |
| 20260504081520 | 60 | 175 | 0.0 | 3.0 | 0.00 | 0.00 | 0.00 | 78 | 1016.6 |
| 20260504081011 | 60 | 198 | 0.0 | 2.0 | 0.00 | 0.00 | 0.00 | 79 | 1016.7 |
| 20260504081002 | 60 | 167 | 1.0 | 6.0 | 0.00 | 0.00 | 0.00 | 79 | 1016.2 |
| 20260504080507 | 60 | 176 | 1.0 | 4.0 | 0.00 | 0.00 | 0.00 | 79 | 1016.5 |
| 20260504050509 | 63 | 148 | 2.0 | 8.0 | 0.00 | 0.00 | 0.00 | 73 | 1018.0 |
| 20260504050504 | 63 | 108 | 0.0 | 5.0 | 0.00 | 0.00 | 0.00 | 73 | 1018.5 |
| 20260504050021 | 63 | 164 | 1.0 | 3.0 | 0.00 | 0.00 | 0.00 | 72 | 1018.6 |
| 20260504050019 | 63 | 167 | 2.0 | 8.0 | 0.00 | 0.00 | 0.00 | 72 | 1018.2 |
| 20260504045507 | 63 | 166 | 2.0 | 9.0 | 0.00 | 0.00 | 0.00 | 72 | 1018.3 |
| 20260504045504 | 63 | 204 | 0.0 | 3.0 | 0.00 | 0.00 | 0.00 | 72 | 1018.7 |
| 20260504045009 | 63 | 265 | 1.0 | 2.0 | 0.00 | 0.00 | 0.00 | 72 | 1018.7 |
| 20260504045007 | 63 | 157 | 2.0 | 9.0 | 0.00 | 0.00 | 0.00 | 72 | 1018.3 |
| 20260504044535 | 63 | 165 | 0.0 | 2.0 | 0.00 | 0.00 | 0.00 | 72 | 1018.7 |
| 20260504044526 | 63 | 158 | 2.0 | 9.0 | 0.00 | 0.00 | 0.00 | 72 | 1018.3 |
| 20260504044008 | 63 | 164 | 1.0 | 5.0 | 0.00 | 0.00 | 0.00 | 72 | 1018.8 |
| 20260504043507 | 64 | 180 | 3.0 | 7.0 | 0.00 | 0.00 | 0.00 | 72 | 1018.4 |
| 20260504043033 | 64 | 153 | 2.0 | 10.0 | 0.00 | 0.00 | 0.00 | 72 | 1018.4 |
| 20260504043030 | 64 | 178 | 1.0 | 3.0 | 0.00 | 0.00 | 0.00 | 72 | 1018.8 |
| 20260504042511 | 64 | 179 | 0.0 | 3.0 | 0.00 | 0.00 | 0.00 | 72 | 1018.8 |
| 20260504042006 | 64 | 161 | 1.0 | 4.0 | 0.00 | 0.00 | 0.00 | 72 | 1018.9 |
| 20260504042003 | 64 | 182 | 4.0 | 8.0 | 0.00 | 0.00 | 0.00 | 72 | 1018.4 |
| 20260504041524 | 64 | 122 | 2.0 | 7.0 | 0.00 | 0.00 | 0.00 | 71 | 1018.4 |
| 20260504041511 | 64 | 200 | 0.0 | 5.0 | 0.00 | 0.00 | 0.00 | 71 | 1018.8 |
| 20260504041006 | 64 | 180 | 0.0 | 5.0 | 0.00 | 0.00 | 0.00 | 71 | 1018.9 |
| 20260504040509 | 64 | 130 | 3.0 | 8.0 | 0.00 | 0.00 | 0.00 | 71 | 1018.6 |
| 20260504040502 | 64 | 183 | 0.0 | 4.0 | 0.00 | 0.00 | 0.00 | 71 | 1019.0 |
| 20260504040020 | 64 | 12 | 1.0 | 4.0 | 0.00 | 0.00 | 0.00 | 70 | 1019.1 |
| 20260504040018 | 64 | 148 | 3.0 | 6.0 | 0.00 | 0.00 | 0.00 | 70 | 1018.6 |
| 20260504035511 | 64 | 185 | 0.0 | 4.0 | 0.00 | 0.00 | 0.00 | 70 | 1019.0 |
| 20260504035508 | 64 | 134 | 2.0 | 4.0 | 0.00 | 0.00 | 0.00 | 70 | 1018.5 |
| 20260504035009 | 64 | 174 | 1.0 | 6.0 | 0.00 | 0.00 | 0.00 | 69 | 1018.5 |
| 20260504035007 | 64 | 191 | 1.0 | 4.0 | 0.00 | 0.00 | 0.00 | 69 | 1019.0 |
| 20260504034524 | 64 | 163 | 0.0 | 3.0 | 0.00 | 0.00 | 0.00 | 69 | 1019.0 |
| 20260504034517 | 64 | 163 | 2.0 | 8.0 | 0.00 | 0.00 | 0.00 | 69 | 1018.5 |
| 20260504034011 | 64 | 234 | 0.0 | 3.0 | 0.00 | 0.00 | 0.00 | 69 | 1019.0 |
| 20260504033513 | 64 | 169 | 0.0 | 3.0 | 0.00 | 0.00 | 0.00 | 68 | 1018.9 |
| 20260504033511 | 64 | 148 | 2.0 | 5.0 | 0.00 | 0.00 | 0.00 | 68 | 1018.4 |
| 20260504033029 | 65 | 151 | 2.0 | 7.0 | 0.00 | 0.00 | 0.00 | 68 | 1018.3 |
| 20260504033012 | 65 | 190 | 1.0 | 5.0 | 0.00 | 0.00 | 0.00 | 68 | 1018.8 |
| 20260504032507 | 65 | 156 | 2.0 | 7.0 | 0.00 | 0.00 | 0.00 | 67 | 1018.5 |
| 20260504032011 | 65 | 148 | 1.0 | 5.0 | 0.00 | 0.00 | 0.00 | 67 | 1018.4 |
| 20260504031532 | 65 | 190 | 0.0 | 3.0 | 0.00 | 0.00 | 0.00 | 66 | 1018.7 |
| 20260504031530 | 65 | 159 | 2.0 | 5.0 | 0.00 | 0.00 | 0.00 | 66 | 1018.2 |
| 20260504031013 | 65 | 154 | 1.0 | 5.0 | 0.00 | 0.00 | 0.00 | 66 | 1018.3 |
| 20260504031005 | 65 | 203 | 0.0 | 2.0 | 0.00 | 0.00 | 0.00 | 66 | 1018.7 |
| 20260504030512 | 64 | 123 | 1.0 | 5.0 | 0.00 | 0.00 | 0.00 | 67 | 1018.2 |
| 20260504030504 | 64 | 184 | 0.0 | 2.0 | 0.00 | 0.00 | 0.00 | 67 | 1018.8 |
| 20260504030027 | 64 | 138 | 2.0 | 7.0 | 0.00 | 0.00 | 0.00 | 69 | 1018.2 |
| 20260504030014 | 64 | 136 | 0.0 | 2.0 | 0.00 | 0.00 | 0.00 | 69 | 1018.7 |
| 20260504025509 | 63 | 131 | 2.0 | 7.0 | 0.00 | 0.00 | 0.00 | 69 | 1018.2 |
| 20260504025506 | 63 | 113 | 0.0 | 3.0 | 0.00 | 0.00 | 0.00 | 69 | 1018.6 |
| 20260504025006 | 62 | 213 | 0.0 | 3.0 | 0.00 | 0.00 | 0.00 | 70 | 1018.7 |
| 20260504024523 | 62 | 137 | 0.0 | 2.0 | 0.00 | 0.00 | 0.00 | 72 | 1018.7 |
| 20260504024503 | 62 | 140 | 0.0 | 2.0 | 0.00 | 0.00 | 0.00 | 72 | 1018.1 |
| 20260504024012 | 62 | 212 | 0.0 | 2.0 | 0.00 | 0.00 | 0.00 | 74 | 1018.8 |
| 20260504024004 | 62 | 148 | 0.0 | 2.0 | 0.00 | 0.00 | 0.00 | 74 | 1018.1 |
| 20260504023507 | 61 | 189 | 0.0 | 0.0 | 0.00 | 0.00 | 0.00 | 72 | 1018.8 |
| 20260504023503 | 61 | 158 | 0.0 | 2.0 | 0.00 | 0.00 | 0.00 | 72 | 1018.1 |
| 20260504023025 | 61 | 189 | 0.0 | 0.0 | 0.00 | 0.00 | 0.00 | 74 | 1018.7 |
| 20260504023003 | 61 | 155 | 0.0 | 0.0 | 0.00 | 0.00 | 0.00 | 74 | 1018.0 |
| 20260504022513 | 61 | 189 | 0.0 | 0.0 | 0.00 | 0.00 | 0.00 | 74 | 1018.7 |
| 20260504022502 | 61 | 155 | 0.0 | 0.0 | 0.00 | 0.00 | 0.00 | 74 | 1018.0 |
| 20260504022009 | 62 | 189 | 0.0 | 0.0 | 0.00 | 0.00 | 0.00 | 76 | 1018.6 |
| 20260504022002 | 62 | 155 | 0.0 | 0.0 | 0.00 | 0.00 | 0.00 | 76 | 1017.9 |
| 20260504021525 | 62 | 189 | 0.0 | 0.0 | 0.00 | 0.00 | 0.00 | 73 | 1018.4 |
| 20260504021508 | 62 | 155 | 0.0 | 2.0 | 0.00 | 0.00 | 0.00 | 73 | 1017.6 |
| 20260504021006 | 62 | 189 | 0.0 | 0.0 | 0.00 | 0.00 | 0.00 | 73 | 1018.4 |
| 20260504021001 | 62 | 155 | 0.0 | 2.0 | 0.00 | 0.00 | 0.00 | 73 | 1017.6 |
| 20260504020510 | 62 | 189 | 0.0 | 0.0 | 0.00 | 0.00 | 0.00 | 74 | 1018.3 |
| 20260504020504 | 62 | 155 | 0.0 | 2.0 | 0.00 | 0.00 | 0.00 | 74 | 1017.4 |
| 20260504020015 | 63 | 189 | 0.0 | 1.0 | 0.00 | 0.00 | 0.00 | 71 | 1018.3 |
| 20260504020013 | 63 | 155 | 0.0 | 2.0 | 0.00 | 0.00 | 0.00 | 71 | 1017.4 |
| 20260504015506 | 63 | 155 | 0.0 | 2.0 | 0.00 | 0.00 | 0.00 | 71 | 1017.3 |
| 20260504015503 | 63 | 189 | 0.0 | 2.0 | 0.00 | 0.00 | 0.00 | 71 | 1018.3 |
| 20260504015007 | 63 | 189 | 0.0 | 2.0 | 0.00 | 0.00 | 0.00 | 71 | 1018.3 |
| 20260504015004 | 63 | 155 | 0.0 | 2.0 | 0.00 | 0.00 | 0.00 | 71 | 1017.3 |
| 20260504014518 | 64 | 189 | 0.0 | 0.0 | 0.00 | 0.00 | 0.00 | 69 | 1018.3 |
| 20260504014513 | 64 | 155 | 0.0 | 2.0 | 0.00 | 0.00 | 0.00 | 69 | 1017.3 |
| 20260504014008 | 64 | 189 | 0.0 | 0.0 | 0.00 | 0.00 | 0.00 | 69 | 1018.3 |
| 20260504014006 | 64 | 155 | 0.0 | 2.0 | 0.00 | 0.00 | 0.00 | 69 | 1017.3 |
| 20260504013506 | 64 | 189 | 0.0 | 0.0 | 0.00 | 0.00 | 0.00 | 68 | 1018.3 |
| 20260504013502 | 64 | 155 | 0.0 | 2.0 | 0.00 | 0.00 | 0.00 | 68 | 1017.3 |
| 20260504013032 | 65 | 189 | 0.0 | 2.0 | 0.00 | 0.00 | 0.00 | 66 | 1018.1 |
| 20260504013017 | 65 | 155 | 0.0 | 2.0 | 0.00 | 0.00 | 0.00 | 66 | 1017.2 |
| 20260504012504 | 65 | 189 | 0.0 | 2.0 | 0.00 | 0.00 | 0.00 | 66 | 1018.2 |
| 20260504012502 | 65 | 155 | 0.0 | 2.0 | 0.00 | 0.00 | 0.00 | 66 | 1017.3 |
| 20260504012008 | 66 | 189 | 0.0 | 2.0 | 0.00 | 0.00 | 0.00 | 65 | 1018.2 |
| 20260504012003 | 66 | 155 | 0.0 | 2.0 | 0.00 | 0.00 | 0.00 | 66 | 1017.3 |
| 20260504011524 | 66 | 205 | 0.0 | 2.0 | 0.00 | 0.00 | 0.00 | 64 | 1018.1 |
| 20260504011515 | 66 | 155 | 0.0 | 2.0 | 0.00 | 0.00 | 0.00 | 64 | 1017.2 |
| 20260504011009 | 67 | 212 | 0.0 | 2.0 | 0.00 | 0.00 | 0.00 | 64 | 1018.2 |
| 20260504011001 | 67 | 155 | 0.0 | 2.0 | 0.00 | 0.00 | 0.00 | 64 | 1017.3 |
| 20260504010504 | 67 | 153 | 0.0 | 0.0 | 0.00 | 0.00 | 0.00 | 63 | 1018.1 |
| 20260504010025 | 68 | 153 | 0.0 | 0.0 | 0.00 | 0.00 | 0.00 | 58 | 1018.1 |
| 20260504010003 | 68 | 155 | 0.0 | 2.0 | 0.00 | 0.00 | 0.00 | 58 | 1017.1 |
| 20260504005507 | 69 | 156 | 0.0 | 2.0 | 0.00 | 0.00 | 0.00 | 60 | 1018.1 |
| 20260504005503 | 69 | 155 | 0.0 | 2.0 | 0.00 | 0.00 | 0.00 | 60 | 1017.1 |
| 20260504005009 | 70 | 155 | 0.0 | 2.0 | 0.00 | 0.00 | 0.00 | 57 | 1017.2 |
| 20260504005003 | 70 | 156 | 0.0 | 2.0 | 0.00 | 0.00 | 0.00 | 57 | 1018.1 |
| 20260504004520 | 71 | 155 | 0.0 | 2.0 | 0.00 | 0.00 | 0.00 | 55 | 1017.2 |
| 20260504004516 | 71 | 163 | 0.0 | 2.0 | 0.00 | 0.00 | 0.00 | 55 | 1018.2 |
| 20260504004005 | 71 | 164 | 0.0 | 2.0 | 0.00 | 0.00 | 0.00 | 55 | 1018.2 |
| 20260504004002 | 71 | 155 | 0.0 | 2.0 | 0.00 | 0.00 | 0.00 | 55 | 1017.2 |
| 20260504003508 | 72 | 121 | 0.0 | 2.0 | 0.00 | 0.00 | 0.00 | 52 | 1018.2 |
| 20260504003506 | 72 | 155 | 0.0 | 2.0 | 0.00 | 0.00 | 0.00 | 52 | 1017.3 |
| 20260504003023 | 72 | 156 | 0.0 | 2.0 | 0.00 | 0.00 | 0.00 | 51 | 1017.3 |
| 20260504003019 | 72 | 134 | 0.0 | 1.0 | 0.00 | 0.00 | 0.00 | 51 | 1018.2 |
| 20260504002508 | 72 | 213 | 0.0 | 2.0 | 0.00 | 0.00 | 0.00 | 50 | 1018.3 |
| 20260504002502 | 72 | 156 | 0.0 | 2.0 | 0.00 | 0.00 | 0.00 | 50 | 1017.5 |
| 20260504002009 | 72 | 156 | 0.0 | 4.0 | 0.00 | 0.00 | 0.00 | 50 | 1017.6 |
| 20260504002004 | 72 | 213 | 0.0 | 2.0 | 0.00 | 0.00 | 0.00 | 50 | 1018.4 |
| 20260504001518 | 73 | 213 | 0.0 | 2.0 | 0.00 | 0.00 | 0.00 | 48 | 1018.5 |
| 20260504001504 | 73 | 156 | 1.0 | 5.0 | 0.00 | 0.00 | 0.00 | 48 | 1017.7 |
| 20260504001009 | 74 | 214 | 0.0 | 2.0 | 0.00 | 0.00 | 0.00 | 46 | 1018.5 |
| 20260504001002 | 74 | 184 | 2.0 | 5.0 | 0.00 | 0.00 | 0.00 | 46 | 1017.7 |
| 20260504000505 | 74 | 128 | 0.0 | 4.0 | 0.00 | 0.00 | 0.00 | 46 | 1018.5 |
| 20260504000502 | 74 | 145 | 2.0 | 7.0 | 0.00 | 0.00 | 0.00 | 46 | 1017.7 |
| 20260504000009 | 75 | 159 | 1.0 | 4.0 | 0.00 | 0.00 | 0.00 | 44 | 1018.6 |
| 20260503235504 | 75 | 179 | 0.0 | 3.0 | 0.00 | 0.00 | 0.00 | 44 | 1018.7 |
| 20260503235502 | 75 | 172 | 2.0 | 7.0 | 0.00 | 0.00 | 0.00 | 44 | 1017.9 |
| 20260503235004 | 75 | 286 | 0.0 | 3.0 | 0.00 | 0.00 | 0.00 | 47 | 1018.7 |
| 20260503234512 | 75 | 175 | 2.0 | 7.0 | 0.00 | 0.00 | 0.00 | 45 | 1017.9 |
| 20260503234508 | 75 | 190 | 0.0 | 4.0 | 0.00 | 0.00 | 0.00 | 45 | 1018.8 |
| 20260503234006 | 75 | 165 | 1.0 | 4.0 | 0.00 | 0.00 | 0.00 | 47 | 1018.7 |
| 20260503234003 | 75 | 142 | 2.0 | 4.0 | 0.00 | 0.00 | 0.00 | 47 | 1017.9 |
| 20260503233507 | 75 | 170 | 1.0 | 5.0 | 0.00 | 0.00 | 0.00 | 46 | 1018.8 |
| 20260503233007 | 75 | 197 | 1.0 | 5.0 | 0.00 | 0.00 | 0.00 | 43 | 1018.7 |
| 20260503232507 | 75 | 173 | 2.0 | 11.0 | 0.00 | 0.00 | 0.00 | 43 | 1017.8 |
| 20260503232503 | 75 | 232 | 0.0 | 5.0 | 0.00 | 0.00 | 0.00 | 43 | 1018.6 |
| 20260503232013 | 75 | 259 | 1.0 | 6.0 | 0.00 | 0.00 | 0.00 | 41 | 1018.5 |
| 20260503232006 | 75 | 134 | 2.0 | 13.0 | 0.00 | 0.00 | 0.00 | 41 | 1017.7 |
| 20260503231525 | 76 | 153 | 6.0 | 13.0 | 0.00 | 0.00 | 0.00 | 42 | 1017.7 |
| 20260503231522 | 76 | 149 | 1.0 | 6.0 | 0.00 | 0.00 | 0.00 | 42 | 1018.6 |
| 20260503231005 | 77 | 162 | 0.0 | 6.0 | 0.00 | 0.00 | 0.00 | 40 | 1018.6 |
| 20260503231003 | 77 | 164 | 3.0 | 10.0 | 0.00 | 0.00 | 0.00 | 40 | 1017.9 |
| 20260503230505 | 77 | 201 | 2.0 | 6.0 | 0.00 | 0.00 | 0.00 | 1018.6 | |
| 20260503230503 | 77 | 196 | 6.0 | 11.0 | 0.00 | 0.00 | 0.00 | 1017.7 | |
| 20260503230025 | 78 | 187 | 2.0 | 7.0 | 0.00 | 0.00 | 0.00 | 1018.7 | |
| 20260503230008 | 78 | 181 | 7.0 | 15.0 | 0.00 | 0.00 | 0.00 | 1017.9 | |
| 20260503225505 | 78 | 156 | 5.0 | 15.0 | 0.00 | 0.00 | 0.00 | 1018.1 | |
| 20260503225501 | 78 | 190 | 1.0 | 7.0 | 0.00 | 0.00 | 0.00 | 1018.8 | |
| 20260503225005 | 78 | 197 | 4.0 | 10.0 | 0.00 | 0.00 | 0.00 | 1018.0 | |
| 20260503225002 | 78 | 204 | 1.0 | 5.0 | 0.00 | 0.00 | 0.00 | 1018.8 | |
| 20260503224515 | 79 | 200 | 6.0 | 13.0 | 0.00 | 0.00 | 0.00 | 1018.1 | |
| 20260503224511 | 79 | 192 | 3.0 | 5.0 | 0.00 | 0.00 | 0.00 | 1018.9 | |
| 20260503224005 | 79 | 181 | 1.0 | 6.0 | 0.00 | 0.00 | 0.00 | 41 | 1018.9 |
| 20260503223505 | 79 | 174 | 2.0 | 6.0 | 0.00 | 0.00 | 0.00 | 41 | 1018.9 |
| 20260503223503 | 79 | 165 | 5.0 | 10.0 | 0.00 | 0.00 | 0.00 | 41 | 1018.1 |
| 20260503223018 | 78 | 159 | 5.0 | 10.0 | 0.00 | 0.00 | 0.00 | 40 | 1018.3 |
| 20260503222508 | 79 | 196 | 1.0 | 3.0 | 0.00 | 0.00 | 0.00 | 41 | 1019.1 |
| 20260503222506 | 79 | 167 | 4.0 | 10.0 | 0.00 | 0.00 | 0.00 | 41 | 1018.4 |
| 20260503222010 | 80 | 163 | 1.0 | 7.0 | 0.00 | 0.00 | 0.00 | 42 | 1019.1 |
| 20260503222003 | 80 | 157 | 3.0 | 10.0 | 0.00 | 0.00 | 0.00 | 42 | 1018.3 |
| 20260503221522 | 80 | 182 | 2.0 | 7.0 | 0.00 | 0.00 | 0.00 | 37 | 1019.1 |
| 20260503221515 | 80 | 206 | 6.0 | 10.0 | 0.00 | 0.00 | 0.00 | 37 | 1018.4 |
| 20260503221009 | 80 | 158 | 1.0 | 5.0 | 0.00 | 0.00 | 0.00 | 40 | 1019.2 |
| 20260503220512 | 80 | 171 | 6.0 | 12.0 | 0.00 | 0.00 | 0.00 | 38 | 1018.6 |
| 20260503220510 | 80 | 169 | 2.0 | 5.0 | 0.00 | 0.00 | 0.00 | 38 | 1019.2 |
| 20260503220028 | 80 | 144 | 4.0 | 8.0 | 0.00 | 0.00 | 0.00 | 41 | 1018.6 |
| 20260503220012 | 80 | 177 | 1.0 | 5.0 | 0.00 | 0.00 | 0.00 | 41 | 1019.3 |
| 20260503215510 | 80 | 202 | 5.0 | 8.0 | 0.00 | 0.00 | 0.00 | 36 | 1018.7 |
| 20260503215506 | 80 | 240 | 2.0 | 5.0 | 0.00 | 0.00 | 0.00 | 36 | 1019.4 |
| 20260503215008 | 80 | 235 | 1.0 | 5.0 | 0.00 | 0.00 | 0.00 | 37 | 1019.5 |
| 20260503215002 | 80 | 200 | 3.0 | 10.0 | 0.00 | 0.00 | 0.00 | 37 | 1018.9 |